Wind_Speed
23 23 23 23 24 24 24 23 22 22 23 23 22 22 21 21 21 22 21 20 20 20 20 19 18 18 18 17 17 16 16 17 17 17 16 15 14 14 14 14 13 13 13 13 13 12 12 11 11
24 24 23 23 24 24 23 23 23 23 23 24 24 23 23 23 23 22 22 21 22 22 21 21 21 20 20 19 18 18 18 17 18 18 17 17 16 15 15 15 15 14 14 14 14 13 13 12 12
24 24 25 25 25 24 24 23 24 23 23 24 24 24 24 24 24 23 23 23 23 23 23 23 22 22 21 21 20 19 20 19 19 19 18 17 17 17 16 16 15 15 15 14 14 14 14 14 14
25 25 26 26 26 25 25 24 24 24 24 24 24 25 25 25 25 25 24 24 24 24 24 24 24 24 23 23 22 21 22 21 20 20 20 20 19 18 18 18 17 16 16 16 16 15 16 16 15
24 26 27 27 27 26 26 26 25 25 25 25 25 25 25 26 26 26 26 26 26 26 25 26 26 25 25 24 23 23 23 23 23 22 22 22 21 20 20 20 19 18 18 18 18 17 17 17 17
25 26 27 27 27 27 27 27 26 26 26 26 26 26 26 26 27 28 28 28 27 27 27 27 27 27 27 26 26 25 25 24 24 25 24 24 23 22 22 22 21 20 20 20 19 19 18 19 19
26 26 27 27 27 27 27 28 28 27 27 27 27 27 27 28 28 29 29 30 30 29 29 29 29 29 29 28 28 27 27 26 26 26 26 25 25 24 24 24 23 23 22 22 22 21 21 20 21
26 27 27 27 27 28 28 28 29 29 29 28 28 29 29 29 29 29 29 30 31 31 31 31 30 30 30 30 30 29 28 28 29 28 28 27 27 27 26 26 25 25 24 23 23 23 23 23 23
27 28 27 27 27 27 28 29 30 31 30 30 30 30 30 30 30 30 30 30 31 32 32 33 33 32 32 32 32 31 31 30 30 30 29 29 29 29 28 28 27 27 26 26 25 25 25 25 25
28 28 27 27 27 28 28 29 30 31 32 32 31 31 30 30 31 31 31 31 32 32 33 34 34 34 34 34 33 33 33 32 32 32 32 32 31 30 30 29 29 28 28 28 27 27 27 26 26
28 28 28 28 27 28 28 30 31 32 32 32 33 32 31 31 31 31 31 31 32 32 33 34 35 35 35 36 35 35 34 34 34 34 34 34 33 32 32 31 30 30 30 29 29 29 28 28 28
29 29 29 29 29 28 29 29 31 32 32 32 33 33 33 33 32 32 32 32 32 33 33 35 35 36 37 37 37 37 36 36 36 36 36 36 35 34 33 32 32 32 32 31 31 31 30 30 30
30 29 30 30 30 29 30 30 31 31 32 33 33 33 34 34 35 34 33 33 33 33 34 35 36 36 36 37 38 38 37 37 37 37 36 37 37 36 35 35 34 34 34 33 33 32 32 32 32
31 31 30 30 30 30 31 31 32 31 33 33 33 33 33 34 35 35 35 34 34 34 35 35 35 36 36 37 38 39 39 38 38 38 37 37 37 37 37 37 36 36 35 35 34 34 34 34 33
31 32 31 31 31 31 31 31 31 31 33 32 32 33 33 33 33 34 34 35 35 35 35 36 36 37 38 38 38 39 40 40 39 39 39 39 38 38 38 38 37 37 37 36 35 35 35 35 35
31 32 31 30 30 30 31 30 30 31 32 32 33 33 33 33 33 33 34 34 35 36 37 37 37 38 39 39 39 40 41 42 41 41 40 40 40 40 40 39 38 38 37 37 37 37 37 37 36
30 31 31 30 30 30 31 30 29 30 31 32 32 32 33 33 33 33 34 34 35 36 37 37 38 39 39 39 40 40 41 42 42 42 41 41 41 41 41 40 40 40 39 39 39 39 39 39 38
29 29 30 30 30 31 30 29 29 29 30 31 31 31 31 31 32 33 33 34 34 35 36 37 38 39 40 39 40 41 41 42 42 43 43 43 42 41 42 41 42 42 42 41 41 40 40 40 40
29 29 29 30 30 31 30 29 29 29 29 30 30 30 30 30 31 32 33 34 34 34 35 36 37 38 39 40 40 41 42 42 42 43 43 43 43 43 42 42 43 43 43 42 42 42 42 42 42
29 29 29 29 30 30 30 30 29 29 29 29 29 30 30 30 31 32 33 34 34 34 35 35 36 37 38 39 40 40 41 42 43 44 44 44 43 43 42 42 43 43 44 44 44 44 43 43 43
28 29 28 29 29 30 30 29 29 29 29 29 29 30 31 31 31 32 32 33 34 34 34 35 35 36 37 39 40 40 41 41 42 42 44 45 44 44 43 44 44 45 46 46 46 46 45 44 43
28 27 28 29 29 30 30 30 28 28 28 29 29 29 30 30 30 30 31 32 33 34 34 35 36 36 37 38 39 40 41 42 42 43 44 45 45 45 45 46 47 47 46 47 47 47 47 46 44
28 27 27 28 29 30 29 30 27 27 27 28 29 29 29 30 30 30 30 31 32 33 34 35 36 36 36 37 38 39 40 41 42 43 44 45 46 45 45 46 46 47 47 48 48 47 47 48 47
27 27 27 28 29 30 28 29 28 28 27 27 27 28 28 29 29 30 30 31 31 32 33 34 35 36 36 37 38 38 39 40 41 42 42 44 45 45 44 44 46 46 48 48 48 47 48 49 48
26 25 26 27 28 29 28 29 28 27 26 26 26 27 27 28 29 29 30 30 31 32 33 34 35 36 37 38 38 38 38 39 40 41 41 43 44 45 45 45 46 47 48 49 49 48 48 49 49
25 25 25 27 28 28 28 29 27 27 26 26 26 26 26 27 28 29 29 30 31 32 33 34 35 36 37 37 38 38 38 39 39 40 41 42 44 45 45 46 47 48 49 50 50 50 49 49 49
23 24 24 26 28 28 28 28 27 26 25 25 25 26 26 27 27 28 29 29 30 31 32 33 34 35 36 36 37 38 38 39 40 40 41 42 43 44 45 45 47 48 50 50 51 52 51 51 51
23 23 23 24 26 28 28 27 26 24 25 25 26 26 26 27 28 29 30 31 31 31 32 33 34 34 36 37 38 39 39 40 40 41 42 42 44 44 45 46 47 48 48 49 50 52 52 52 52
23 23 23 24 26 27 27 26 24 24 24 24 26 26 27 28 28 29 29 30 31 31 32 32 33 34 35 36 37 38 39 41 42 43 43 43 43 44 45 47 48 48 49 50 51 51 52 52 53
22 22 23 23 24 26 27 26 24 24 24 25 25 26 27 28 29 29 29 29 30 31 31 32 33 34 35 36 37 38 40 40 41 42 43 43 44 45 46 47 48 49 49 49 50 51 51 52 52
Wind_Direction
254 255 255 256 256 255 254 252 252 250 249 250 250 249 248 247 247 248 248 248 247 247 246 244 243 241 239 238 237 237 238 238 236 235 235 237 238 236 234 233 232 233 236 238 237 236 239 243 244
255 255 255 255 256 256 254 253 252 251 250 250 250 250 250 248 248 248 248 248 246 246 246 245 244 243 242 240 239 238 238 239 237 235 236 237 238 238 236 235 236 237 238 240 240 239 242 246 248
256 256 255 255 255 256 255 253 253 252 251 251 250 251 250 249 249 248 248 248 246 245 246 245 245 244 244 243 242 241 240 240 240 239 238 239 240 239 239 238 239 240 240 240 241 243 245 247 249
257 256 255 255 255 254 254 254 254 253 252 252 251 251 250 250 249 249 249 249 246 244 244 244 244 245 244 244 243 242 242 241 241 241 241 242 243 242 242 243 242 241 242 243 246 249 248 248 250
256 255 255 255 255 255 255 254 254 253 253 253 252 252 251 250 249 249 249 249 247 245 244 244 244 244 244 244 244 243 243 243 243 243 243 243 244 243 242 243 244 245 246 246 247 249 251 250 250
257 257 256 257 257 256 255 254 254 254 253 254 254 252 251 251 251 250 249 248 247 246 245 244 244 244 244 245 245 244 243 243 244 245 244 245 245 245 244 243 245 247 248 248 248 248 251 252 252
259 259 259 259 258 256 255 255 254 254 254 254 254 253 252 252 252 252 250 248 246 246 246 245 245 245 245 245 245 245 244 244 245 246 246 246 247 248 247 246 246 248 248 248 249 249 250 251 253
260 261 260 259 258 256 255 255 255 254 255 255 255 254 253 253 253 253 251 250 247 246 246 246 246 245 245 245 244 245 244 244 246 246 246 245 246 247 248 248 249 249 249 250 250 251 250 251 253
260 261 261 261 260 258 256 255 255 255 255 256 256 256 254 253 253 253 253 252 250 248 248 247 246 246 245 245 245 244 244 245 246 247 247 247 248 248 249 250 250 250 250 250 251 252 253 254 254
261 262 263 262 260 260 257 256 256 255 255 256 257 256 255 253 253 253 252 252 251 250 249 247 246 246 246 245 246 245 245 246 246 247 248 247 248 249 250 250 251 250 250 250 252 253 254 255 254
261 263 263 261 261 260 258 257 257 257 256 256 256 255 254 253 253 253 253 252 251 250 248 247 247 246 246 245 245 246 247 247 247 248 248 248 248 249 250 250 251 251 251 251 252 254 254 255 256
262 264 263 262 261 261 260 259 258 257 257 257 256 255 254 253 253 254 254 253 251 251 249 248 248 247 247 246 245 246 248 249 249 247 247 248 249 249 250 251 251 252 252 252 253 253 254 254 255
262 263 263 262 261 260 260 259 259 257 257 257 257 255 255 255 254 254 255 254 252 251 251 250 249 249 248 247 246 246 248 249 249 249 247 247 248 249 250 251 251 252 253 253 254 254 254 254 255
261 261 261 260 260 259 260 260 259 258 259 259 257 256 256 256 255 255 254 253 252 252 251 250 250 249 249 248 247 247 247 249 249 248 247 247 248 249 250 251 251 252 253 253 253 254 255 255 256
262 260 259 260 260 260 260 259 260 259 259 258 257 256 257 257 256 255 254 253 252 251 251 250 250 250 250 250 249 247 247 247 249 249 248 248 248 249 250 251 251 251 253 253 254 255 255 256 257
263 260 258 259 259 259 259 259 259 260 259 258 257 257 257 256 256 255 254 253 251 250 251 249 249 250 250 250 249 249 249 249 250 250 249 249 248 248 250 252 252 252 253 254 255 255 257 258 258
262 259 258 260 259 258 258 259 259 260 259 258 258 257 256 255 255 255 254 254 252 251 250 249 250 250 250 250 249 251 251 250 250 249 250 250 249 249 250 251 252 252 253 255 255 256 258 259 258
262 260 261 261 260 259 259 259 259 260 260 260 258 257 257 256 256 255 254 254 253 252 251 251 250 251 251 251 252 251 251 251 250 250 250 250 250 250 251 252 253 254 254 256 257 257 257 258 258
261 260 264 264 261 260 260 260 260 261 260 260 259 257 257 256 256 255 254 253 253 253 252 253 253 254 253 253 254 253 253 252 251 251 250 250 250 249 251 252 253 254 255 257 258 258 258 258 259
261 263 264 264 263 262 262 262 261 261 261 261 260 259 258 257 257 256 255 255 254 255 255 255 256 256 254 254 254 255 253 253 252 252 252 252 251 252 252 253 254 255 256 257 257 258 259 258 259
263 265 265 265 265 264 264 261 261 261 262 261 261 261 260 259 258 257 256 256 256 255 255 255 256 257 256 256 255 255 254 253 253 254 254 254 253 254 254 254 255 257 257 257 257 257 258 259 259
263 264 265 264 264 265 264 263 260 261 262 261 262 261 261 260 259 257 257 257 256 256 257 257 257 257 257 256 255 255 255 254 255 256 256 255 254 255 255 255 255 257 256 256 257 257 258 259 260
264 265 265 264 263 263 263 262 261 261 261 262 262 262 261 260 259 258 257 257 256 257 258 258 259 258 257 256 256 256 257 257 257 257 257 256 255 255 256 256 256 257 257 257 257 258 259 260 260
263 265 266 264 264 263 263 264 263 262 262 263 263 261 260 259 258 259 260 260 259 259 260 260 260 259 258 258 258 258 258 258 257 257 258 257 256 257 258 258 257 257 257 256 256 258 259 260 260
263 266 267 266 264 264 264 264 265 265 264 263 263 261 260 258 258 259 261 261 261 261 261 261 261 260 260 260 260 260 259 259 259 259 259 259 259 259 259 260 260 259 257 257 257 258 259 260 260
262 264 266 266 265 266 266 266 267 266 266 265 262 261 261 259 260 261 262 263 264 263 262 262 262 261 260 261 261 262 261 261 260 261 261 262 261 261 261 261 261 261 261 259 259 259 260 260 260
263 263 265 267 266 267 267 267 268 268 268 266 265 264 263 262 263 264 265 266 267 265 264 263 263 261 261 261 262 263 263 262 262 261 262 263 263 263 263 264 264 263 263 261 260 260 260 260 260
264 265 266 267 268 269 269 268 269 268 266 266 266 266 265 264 264 266 268 269 269 267 265 265 263 262 261 262 263 264 264 264 263 264 263 263 264 264 264 264 264 264 263 262 262 262 262 261 261
265 266 267 267 267 269 270 270 270 271 269 266 265 266 266 267 267 268 269 269 269 267 267 265 263 263 262 262 263 263 264 264 264 265 265 265 265 265 265 265 264 264 264 264 263 263 262 262 262
266 267 268 267 267 268 269 270 272 272 270 269 268 268 268 269 269 270 271 271 270 269 268 268 266 264 263 263 264 264 264 265 265 266 267 267 267 266 266 266 266 266 266 265 264 263 262 261 262
Height
5814 5815 5816 5817 5818 5818 5819 5820 5821 5821 5822 5822 5823 5824 5825 5826 5827 5829 5829 5828 5829 5830 5831 5832 5833 5834 5834 5835 5836 5837 5838 5838 5839 5840 5841 5841 5842 5842 5843 5843 5844 5844 5845 5845 5846 5846 5846 5847 5847
5809 5810 5812 5812 5813 5813 5815 5815 5816 5817 5817 5817 5818 5819 5819 5820 5821 5822 5823 5824 5825 5826 5827 5828 5829 5830 5831 5832 5833 5834 5835 5835 5836 5837 5838 5838 5839 5840 5840 5841 5841 5842 5842 5843 5843 5844 5844 5845 5845
5804 5805 5807 5807 5807 5809 5810 5811 5811 5811 5812 5812 5813 5813 5814 5815 5816 5817 5819 5819 5820 5821 5822 5824 5825 5826 5827 5828 5829 5830 5831 5832 5833 5834 5835 5835 5836 5837 5838 5838 5839 5839 5840 5840 5841 5842 5842 5842 5843
5799 5800 5801 5802 5802 5803 5804 5805 5806 5806 5807 5807 5808 5808 5809 5810 5811 5812 5813 5814 5815 5817 5818 5819 5820 5822 5823 5824 5826 5827 5828 5829 5829 5830 5831 5832 5833 5833 5834 5835 5836 5836 5837 5838 5838 5839 5839 5840 5840
5793 5794 5795 5795 5796 5798 5799 5799 5800 5801 5801 5802 5802 5803 5804 5805 5805 5806 5807 5809 5810 5811 5813 5814 5815 5817 5818 5820 5821 5822 5824 5825 5826 5826 5827 5828 5829 5830 5831 5832 5833 5833 5834 5834 5835 5835 5836 5837 5837
5788 5788 5789 5790 5791 5792 5793 5793 5794 5795 5795 5796 5796 5797 5798 5799 5799 5800 5801 5803 5804 5805 5807 5809 5810 5812 5813 5815 5816 5818 5819 5820 5822 5822 5823 5824 5825 5826 5827 5828 5829 5829 5830 5831 5831 5832 5832 5833 5833
5782 5783 5783 5785 5785 5786 5787 5787 5788 5789 5789 5790 5790 5791 5792 5793 5793 5794 5795 5796 5798 5799 5801 5803 5804 5806 5808 5809 5811 5813 5814 5815 5817 5818 5819 5820 5821 5822 5823 5823 5824 5825 5826 5826 5827 5828 5828 5829 5829
5776 5777 5777 5778 5779 5780 5781 5781 5782 5782 5783 5784 5784 5785 5786 5786 5787 5787 5788 5789 5790 5792 5794 5796 5798 5800 5802 5803 5805 5807 5809 5810 5811 5812 5813 5815 5816 5817 5817 5819 5819 5820 5821 5822 5822 5823 5824 5824 5825
5769 5771 5771 5772 5773 5774 5774 5775 5775 5776 5776 5777 5777 5778 5779 5779 5780 5780 5781 5782 5783 5785 5787 5789 5791 5793 5795 5797 5799 5801 5802 5804 5805 5806 5807 5809 5810 5811 5812 5813 5814 5815 5816 5817 5817 5818 5819 5819 5820
5763 5764 5765 5766 5766 5767 5767 5768 5768 5769 5769 5770 5770 5771 5772 5772 5773 5773 5774 5775 5776 5778 5780 5782 5784 5786 5788 5790 5792 5794 5796 5797 5799 5800 5801 5802 5804 5805 5806 5807 5808 5809 5810 5811 5812 5813 5813 5814 5815
5756 5757 5758 5758 5759 5759 5760 5760 5760 5761 5762 5762 5763 5764 5764 5765 5766 5766 5767 5768 5769 5770 5772 5774 5776 5778 5780 5782 5784 5786 5788 5790 5792 5793 5794 5795 5797 5799 5799 5800 5801 5803 5804 5805 5806 5807 5807 5808 5809
5749 5750 5751 5751 5751 5752 5752 5753 5753 5753 5754 5754 5755 5756 5757 5757 5758 5759 5760 5760 5761 5762 5764 5766 5768 5770 5772 5774 5776 5778 5780 5782 5783 5785 5786 5788 5790 5792 5793 5794 5795 5796 5797 5799 5800 5800 5801 5802 5803
5742 5743 5743 5743 5744 5744 5745 5745 5745 5746 5746 5746 5747 5748 5748 5749 5750 5751 5752 5753 5754 5755 5756 5758 5760 5762 5764 5766 5768 5770 5772 5774 5775 5777 5778 5780 5782 5784 5786 5787 5788 5789 5790 5792 5793 5794 5794 5795 5796
5734 5734 5735 5735 5736 5736 5736 5737 5737 5738 5738 5738 5738 5739 5740 5740 5741 5742 5744 5745 5746 5747 5749 5750 5752 5754 5756 5758 5760 5762 5764 5765 5767 5769 5770 5772 5774 5776 5778 5779 5781 5782 5783 5784 5786 5787 5787 5788 5789
5726 5726 5726 5727 5727 5728 5728 5729 5729 5729 5729 5729 5730 5730 5731 5732 5733 5734 5735 5736 5738 5739 5740 5742 5744 5746 5748 5749 5751 5753 5755 5756 5758 5760 5762 5764 5766 5768 5769 5771 5773 5774 5776 5777 5778 5779 5780 5781 5782
5717 5717 5718 5718 5718 5719 5721 5721 5721 5720 5720 5721 5721 5722 5722 5723 5724 5725 5726 5728 5729 5731 5732 5734 5736 5737 5739 5741 5743 5744 5745 5747 5749 5751 5753 5755 5757 5759 5761 5763 5764 5766 5767 5769 5770 5771 5772 5773 5774
5708 5709 5709 5710 5710 5711 5711 5713 5713 5712 5712 5713 5713 5713 5714 5715 5716 5717 5718 5719 5721 5722 5724 5726 5727 5729 5730 5732 5734 5735 5736 5738 5740 5742 5744 5746 5748 5750 5752 5754 5756 5757 5759 5760 5761 5762 5764 5764 5765
5701 5701 5702 5702 5702 5703 5703 5704 5705 5704 5704 5705 5705 5705 5706 5707 5708 5709 5710 5711 5713 5714 5716 5717 5719 5720 5722 5723 5724 5726 5727 5728 5730 5732 5734 5736 5739 5740 5743 5745 5746 5748 5750 5751 5752 5753 5754 5755 5756
5693 5694 5694 5694 5694 5695 5695 5696 5697 5697 5697 5698 5698 5698 5699 5700 5700 5701 5702 5703 5704 5706 5707 5709 5710 5711 5712 5714 5715 5716 5718 5719 5721 5722 5724 5727 5729 5731 5733 5735 5737 5738 5740 5741 5742 5743 5744 5745 5746
5685 5685 5686 5686 5686 5686 5688 5688 5689 5689 5689 5690 5690 5690 5691 5692 5692 5693 5694 5695 5696 5697 5698 5700 5700 5701 5702 5704 5705 5707 5708 5710 5711 5713 5715 5717 5719 5721 5723 5725 5727 5728 5730 5731 5732 5733 5734 5735 5736
5677 5678 5678 5678 5678 5678 5680 5681 5682 5682 5682 5682 5682 5682 5683 5684 5684 5685 5686 5687 5688 5689 5690 5691 5692 5692 5693 5694 5696 5697 5698 5700 5702 5704 5705 5707 5709 5711 5713 5714 5716 5718 5719 5721 5722 5723 5724 5725 5726
5669 5670 5670 5670 5670 5671 5672 5672 5674 5674 5674 5674 5674 5674 5675 5675 5676 5676 5677 5678 5679 5680 5681 5682 5683 5683 5684 5685 5686 5687 5689 5690 5692 5694 5695 5697 5699 5700 5702 5704 5705 5707 5708 5710 5711 5712 5713 5714 5714
5661 5662 5662 5662 5662 5663 5664 5664 5667 5667 5666 5666 5666 5666 5667 5667 5668 5668 5669 5670 5670 5671 5672 5673 5673 5674 5675 5675 5677 5678 5679 5680 5682 5683 5684 5686 5688 5690 5691 5693 5694 5696 5697 5698 5700 5701 5702 5702 5703
5654 5654 5654 5654 5654 5655 5656 5656 5658 5658 5659 5659 5659 5659 5659 5659 5660 5660 5661 5661 5662 5663 5663 5664 5664 5665 5665 5666 5667 5668 5669 5671 5672 5673 5674 5675 5677 5678 5679 5681 5682 5684 5685 5687 5688 5689 5690 5691 5692
5647 5647 5647 5646 5646 5646 5648 5648 5650 5650 5650 5651 5651 5651 5651 5651 5652 5652 5653 5653 5653 5654 5654 5654 5655 5655 5656 5657 5657 5658 5660 5660 5661 5662 5663 5664 5665 5667 5668 5669 5670 5672 5673 5674 5675 5676 5678 5679 5680
5639 5640 5640 5640 5639 5639 5639 5639 5643 5642 5642 5642 5642 5643 5643 5643 5644 5644 5644 5645 5645 5645 5645 5645 5646 5646 5646 5647 5648 5648 5649 5650 5651 5651 5652 5653 5654 5655 5656 5657 5658 5659 5660 5661 5663 5664 5665 5666 5667
5631 5632 5633 5632 5631 5631 5631 5633 5635 5634 5634 5634 5634 5634 5635 5635 5636 5636 5636 5636 5636 5636 5636 5636 5636 5636 5636 5637 5638 5638 5639 5639 5640 5641 5641 5642 5643 5644 5644 5645 5645 5646 5647 5649 5650 5651 5652 5653 5654
5625 5625 5625 5624 5623 5623 5624 5625 5627 5627 5627 5627 5627 5627 5627 5628 5628 5628 5628 5627 5627 5627 5627 5626 5626 5627 5627 5627 5627 5628 5628 5629 5629 5630 5631 5631 5631 5632 5632 5633 5633 5633 5634 5635 5636 5638 5639 5640 5641
5618 5618 5618 5617 5617 5617 5617 5621 5620 5620 5620 5620 5620 5619 5620 5620 5620 5620 5619 5618 5618 5617 5617 5617 5617 5617 5617 5617 5617 5618 5618 5618 5618 5618 5619 5619 5619 5619 5620 5620 5620 5620 5621 5621 5622 5623 5625 5626 5627
5611 5611 5611 5612 5611 5610 5610 5615 5613 5613 5612 5612 5612 5612 5611 5611 5611 5611 5610 5610 5609 5608 5608 5607 5607 5607 5607 5607 5607 5606 5607 5606 5606 5606 5606 5606 5607 5607 5607 5606 5607 5607 5607 5607 5608 5609 5610 5612 5613